Location: Klein M�hlingen
(51.9472°N, 11.7453°E)
Time: 23:55:44
(UTC+00:00)

IGS 5A - Pass Details

Date: 09 April 2020
Orbit: 585 x 587 km, 97.6° (Epoch: 01 June)

Event Time Altitude Azimuth Distance (km) Brightness Sun altitude
Exits shadow 20:20:46 44° 169° (SSE) 819 3.8 -19.5°
Maximum altitude 20:22:03 87° 255° (WSW) 595 3.4 -19.7°
Drops below altitude 10° 20:26:14 10° 346° (NNW) 1,923 6.9 -20.1°
Sets 20:28:24 0° 346° (NNW) 2,828 7.9 -20.3°
